Regional Weather Roundup
Issued by NWS

Home | Current Version | Previous Version | Graphics & Text | Print | Product List | Glossary On
Versions: 1 2 3 4 5 6 7 8 9 10 11 12 13 14 15 16 17 18 19 20 21 22 23 24 25 26 27 28 29 30 31 32 33 34 35 36 37 38 39 40 41 42 43 44 45 46 47 48 49 50
000
ASUS45 KTFX 241210
RWRMT
MONTANA REGIONAL WEATHER ROUNDUP
NATIONAL WEATHER SERVICE GREAT FALLS MT
600 AM MDT SAT JUN 24 2017

NOTE: "FAIR" INDICATES FEW OR NO CLOUDS BELOW 12000 FEET WITH NO
SIGNIFICANT WEATHER AND/OR OBSTRUCTIONS TO VISIBILITY.

MTZ001>007-043-241300-
WEST OF THE DIVIDE

CITY           SKY/WX    TMP DP  RH WIND       PRES   REMARKS
KALISPELL      CLEAR     42  41  96 CALM      30.27R
MISSOULA       CLEAR     47  39  74 W5        30.29R
BUTTE          CLEAR     39  33  79 SE5       30.36S
MULLAN PASS    CLEAR     53  28  38 CALM      30.34R
DEER LODGE       N/A     39  36  87 CALM      30.37R
EUREKA           N/A     41  37  87 MISG      30.29R
HAMILTON         N/A     46  39  76 CALM      30.29R
$$

MTZ008-052>055-241300-
SOUTHWEST MONTANA

CITY           SKY/WX    TMP DP  RH WIND       PRES   REMARKS
BOZEMAN        MOCLDY    39  37  92 SE6       30.35R
DILLON         CLEAR     44  34  67 CALM      30.33R
W YELLOWSTONE  CLEAR     28  27  93 CALM      30.38S
ENNIS          CLEAR     37  34  87 CALM      30.39R
THREE FORKS      N/A     44  38  79 CALM      30.29R
$$

MTZ009-010-012-014-046-048-049-054-241300-
EAST SLOPES AND CENTRAL MONTANA

CITY           SKY/WX    TMP DP  RH WIND       PRES   REMARKS
CUT BANK       CLOUDY    47  45  93 MISG      30.34R
GREAT FALLS    CLOUDY    44  38  79 SW8       30.33R
MALMSTROM AFB  CLOUDY    53  45  76 W3        30.32R
HELENA         CLEAR     49  38  65 CALM      30.33R
CHOTEAU          N/A     45  39  81 W5        30.35R
$$

MTZ011-013-016-021-045-047-050-051-241300-
NORTH CENTRAL MONTANA

CITY           SKY/WX    TMP DP  RH WIND       PRES   REMARKS
HAVRE          CLOUDY    42  38  85 W3        30.31R
LEWISTOWN      CLOUDY    46  40  79 E5        30.33S
N BAR RANCH    MOCLDY    48  37  66 NW5       30.36S
CHINOOK          N/A     43  37  81 CALM      30.30R
FORT BENTON      N/A     52  45  76 MISG      30.33
$$

MTZ017>020-022>027-061-062-241300-
NORTHEAST MONTANA

CITY           SKY/WX    TMP DP  RH WIND       PRES   REMARKS
GLASGOW        CLEAR     43  33  68 E7        30.27R
JORDAN           N/A     42  29  59 W3        30.27R
SIDNEY         CLEAR     46  35  65 W8        30.25R
WOLF POINT     CLEAR     40  34  79 CALM      30.28R
MALTA          PTCLDY    41  37  87 SW5       30.28R
PLENTYWOOD       N/A     39  34  81 CALM      30.24R
POPLAR           N/A     43  34  70 CALM      30.27R
$$

MTZ028>42-056>058-241300-
SOUTHCENTRAL AND SOUTHEAST MONTANA

CITY           SKY/WX    TMP DP  RH WIND       PRES   REMARKS
BAKER          CLOUDY    43  30  60 NW6       30.26R
BILLINGS       CLOUDY    54  45  71 SW7       30.31R
LIVINGSTON     CLEAR     37  34  89 CALM      30.36R
MILES CITY     PTCLDY    45  28  51 W9        30.26R
BIG TIMBER     CLEAR     41  36  81 SW9       30.37R
FORSYTH          N/A     48  34  57 CALM      30.27R
ROUNDUP          N/A     54  35  48 SW3       30.20R
$$

REGIONAL REPORTS...DAKOTAS

CITY           SKY/WX    TMP DP  RH WIND       PRES   REMARKS
WILLISTON      PTCLDY    47  36  65 NW14      30.23R
MINOT          CLOUDY    47  41  80 NW14      30.13R
DICKINSON      CLEAR     43  35  73 NW9       30.19R
WATFORD CITY     N/A     43  36  75 NW8       30.21R
BISMARCK       PTCLDY    50  40  68 NW12      30.15R
GRAND FORKS    CLOUDY    51  47  86 NW12      29.98R
FARGO          MOSUNNY   52  42  69 W14       30.00R
BUFFALO SD       N/A     48  31  51 NW14      30.16R
RAPID CITY     PTCLDY    49  31  49 NW6       30.25R
$$

REGIONAL REPORTS...WYOMING/IDAHO/WASHINGTON

CITY           SKY/WX    TMP DP  RH WIND       PRES   REMARKS
GILLETTE       CLOUDY    49  40  71 CALM      30.30R
SHERIDAN       CLOUDY    49  43  80 CALM      30.31R
BUFFALO WY     MOCLDY    47  34  60 NW3       30.34R
CODY           CLEAR     46  35  65 S5        30.36R
YELLOWSTONE LA   N/A     29  26  89 CALM      30.44R
IDAHO FALLS    CLEAR     42  40  92 N3        30.26R
SALMON         CLEAR     41  36  81 CALM      30.28R
BOISE          CLEAR     56  39  53 CALM      30.14R
SPOKANE        CLEAR     56  42  59 CALM      30.22R
$$

REGIONAL REPORTS...ALBERTA

CITY           SKY/WX    TMP DP  RH WIND       PRES   REMARKS
EDMONTON       CLOUDY    50  46  87 W5        30.27R
CALGARY        MOCLDY    50  43  76 NW6       30.33R
LETHBRIDGE     PTCLDY    45  41  87 W5        30.31S
MEDICINE HAT   PTCLDY    45  41  87 S2        30.29R
WATERTON GATE    N/A     39  37  93 SW1         N/A
MILK RIVER       N/A     48  43  81 N8          N/A
$$

REGIONAL REPORTS...SASKATCHEWAN

CITY           SKY/WX    TMP DP  RH WIND       PRES   REMARKS
SWIFT CURRENT  PTCLDY    43  41  93 SW8       30.26R
REGINA         PTCLDY    39  37  93 NW9       30.26R
SASKATOON      PTCLDY    43  41  93 S3        30.27R
VAL MARIE        N/A     34  30  86 NW1         N/A
ROCKGLEN         N/A     41  34  75 NW2         N/A
$$



USA.gov is the U.S. government's official web portal to all federal, state and local government web resources and services.